Regional Weather Roundup
Issued by NWS

Home | Current Version | Previous Version | Text Only | Print | Product List | Glossary On
Versions: 1 2 3 4 5 6 7 8 9 10 11 12 13 14 15 16 17 18 19 20 21 22 23 24 25 26 27 28 29 30 31 32 33 34 35 36 37 38 39 40 41 42 43 44 45 46 47 48 49 50
000
ASUS44 KBMX 030010
RWRAL

ALABAMA REGIONAL WEATHER ROUNDUP
NATIONAL WEATHER SERVICE BIRMINGHAM AL
700 PM CDT SUN AUG 02 2015

NOTE: "FAIR" INDICATES FEW OR NO CLOUDS BELOW 12,000 FEET
WITH NO SIGNIFICANT WEATHER AND/OR OBSTRUCTIONS TO VISIBILITY.

THE REMARK "TC" DENOTES TEMPERATURE IN DEGREES CELSIUS.

ALZ001>011-014-016>018-020-030100-
NORTH ALABAMA

CITY           SKY/WX    TMP DP  RH WIND       PRES   REMARKS
MUSCLE SHOALS  MOCLDY    86  58  38 CALM      29.91S
6HR MIN TEMP:  86; 6HR MAX TEMP:  95;

HUNTSVILLE     MOCLDY    89  60  37 N3        29.90S
6HR MIN TEMP:  87; 6HR MAX TEMP:  96;

DECATUR        MOCLDY    85  60  42 NE6       29.90F
6HR MIN TEMP:  84; 6HR MAX TEMP:  93;

HALEYVILLE     FAIR      88  66  47 CALM      29.94F HX  90
6HR MIN TEMP:  88; 6HR MAX TEMP:  94;

GADSDEN        CLEAR     90  48  24 NW5       29.87S
6HR MIN TEMP:  90; 6HR MAX TEMP:  97;

$$

ALZ012-013-022-023-030>036-040>044-030100-
WEST CENTRAL ALABAMA

CITY           SKY/WX    TMP DP  RH WIND       PRES   REMARKS
TUSCALOOSA     CLOUDY    94  63  35 NE9       29.86S HX  95
6HR MIN TEMP:  93; 6HR MAX TEMP:  98;

$$

ALZ015-024>027-033>036-040>044-030100-
CENTRAL ALABAMA

CITY           SKY/WX    TMP DP  RH WIND       PRES   REMARKS
BIRMINGHAM     PTCLDY    90  54  29 N8        29.90S
6HR MIN TEMP:  90; 6HR MAX TEMP:  96;

MONTGOMERY     CLEAR     90  66  45 W6        29.84S HX  92
6HR MIN TEMP:  90; 6HR MAX TEMP:  97;

SHELBY CO ARPT CLEAR     86  70  58 CALM      29.87S HX  90
6HR MIN TEMP:  86; 6HR MAX TEMP:  95;

MAXWELL AFB    CLEAR     93  65  39 W1        29.83S HX  95
6HR MIN TEMP:  93; 6HR MAX TEMP:  97;

GREENVILLE     NOT AVBL
$$

ALZ019-021-028-029-037-038-045>048-030100-
EAST CENTRAL ALABAMA

CITY           SKY/WX    TMP DP  RH WIND       PRES   REMARKS
ANNISTON       CLEAR     93  50  23 N3        29.87S HX  90
6HR MIN TEMP:  90; 6HR MAX TEMP:  95;

ALEXANDER CITY CLEAR     92  54  27 CALM      29.87S HX  90
6HR MIN TEMP:  92; 6HR MAX TEMP:  94;

AUBURN         PTCLDY    88  70  55 SE3       29.89R HX  92
6HR MIN TEMP:  88; 6HR MAX TEMP:  95;

$$

ALZ051>064-030100-
SOUTHWEST ALABAMA

CITY           SKY/WX    TMP DP  RH WIND       PRES   REMARKS
MOBILE         PTCLDY    87  77  72 S10       29.86R HX  99
6HR MIN TEMP:  87; 6HR MAX TEMP:  95;

BROOKLEY FIELD CLEAR     85  73  67 W6        29.86S HX  91
6HR MIN TEMP:  85; 6HR MAX TEMP:  96;

EVERGREEN      PTCLDY    90  66  45 N3        29.85S HX  92
6HR MIN TEMP:  90; 6HR MAX TEMP:  98;

$$

ALZ049-050-065>069-030100-
SOUTHEAST ALABAMA

CITY           SKY/WX    TMP DP  RH WIND       PRES   REMARKS
DOTHAN         CLEAR     90  71  53 N6        29.87S HX  96
6HR MIN TEMP:  88; 6HR MAX TEMP:  93;

OZARK          CLEAR     90  72  56 NE6       29.84R HX  97
6HR MIN TEMP:  90; 6HR MAX TEMP:  94;

TROY           CLEAR     87  75  67 CALM      29.86R HX  96
6HR MIN TEMP:  85; 6HR MAX TEMP:  95;

EUFAULA        FAIR      89  72  56 CALM      29.84R HX  96
6HR MIN TEMP:  89; 6HR MAX TEMP:  95;

$$


USA.gov is the U.S. government's official web portal to all federal, state and local government web resources and services.